,,,PA_Meas_PMT16A,,PR_Meas_QMR101_102,,RH_Meas_QMH101,,SR_Meas_QMS101,,TA_Meas_QMH101,,GenWind,,GenWind,
date,time,status,PA,status,PR,status,RH,status,SR,status,TA,status,DirAvg,status,SpdAvg,
2010-02-01, 00:00:05,VALID,1005.05,VALID,0,VALID,95.0482,VALID,0,VALID,23.4487,VALID,7,VALID,0.413672,
2010-02-01, 00:01:05,VALID,1005.01,VALID,0,VALID,95.0635,VALID,0,VALID,23.4098,VALID,7,VALID,0.351563,
2010-02-01, 00:02:05,VALID,1005,VALID,0,VALID,95.0558,VALID,0.100563,VALID,23.3904,VALID,7,VALID,0.571484,
2010-02-01, 00:03:05,VALID,1004.98,VALID,0,VALID,95.0482,VALID,0.100563,VALID,23.3497,VALID,7,VALID,0.288672,
2010-02-01, 00:04:05,VALID,1004.95,VALID,0,VALID,95.0482,VALID,0,VALID,23.3904,VALID,7,VALID,0.376172,
2010-02-01, 00:05:05,VALID,1004.91,VALID,0,VALID,95.0558,VALID,0.100563,VALID,23.408,VALID,7,VALID,0.478516,
2010-02-01, 00:06:05,VALID,1004.9,VALID,0,VALID,95.0864,VALID,0,VALID,23.4487,VALID,7,VALID,0.261719,
2010-02-01, 00:07:05,VALID,1004.89,VALID,0,VALID,95.094,VALID,0.100563,VALID,23.4682,VALID,7,VALID,0,
2010-02-01, 00:08:05,VALID,1004.86,VALID,0,VALID,95.0787,VALID,0.100563,VALID,23.447,VALID,7,VALID,0,
2010-02-01, 00:09:05,VALID,1004.82,VALID,0,VALID,95.094,VALID,0.100563,VALID,23.4487,VALID,7,VALID,0.330078,
2010-02-01, 00:10:05,VALID,1004.79,VALID,0,VALID,95.0864,VALID,0.100563,VALID,23.4682,VALID,7,VALID,0.339844,
2010-02-01, 00:11:05,VALID,1004.78,VALID,0,VALID,95.094,VALID,0.100563,VALID,23.4293,VALID,7,VALID,0.313281,
2010-02-01, 00:12:05,VALID,1004.76,VALID,0,VALID,95.0787,VALID,0.100563,VALID,23.4098,VALID,7,VALID,0.415625,
2010-02-01, 00:13:05,VALID,1004.73,VALID,0,VALID,95.0482,VALID,0.100563,VALID,23.3497,VALID,7,VALID,0.480859,
2010-02-01, 00:14:05,VALID,1004.7,VALID,0,VALID,95.0558,VALID,0,VALID,23.3337,VALID,7,VALID,0.530859,
2010-02-01, 00:15:05,VALID,1004.72,VALID,0,VALID,95.0253,VALID,0,VALID,23.3143,VALID,7,VALID,0.444141,
2010-02-01, 00:16:05,VALID,1004.69,VALID,0,VALID,95.0177,VALID,0,VALID,23.2948,VALID,7,VALID,0.255078,
2010-02-01, 00:17:05,VALID,1004.67,VALID,0,VALID,95.0177,VALID,0,VALID,23.2948,VALID,7,VALID,0.296094,
2010-02-01, 00:18:05,VALID,1004.69,VALID,0,VALID,94.9948,VALID,0,VALID,23.2948,VALID,7,VALID,0.311328,
2010-02-01, 00:19:05,VALID,1004.65,VALID,0,VALID,95.0177,VALID,0,VALID,23.3143,VALID,7,VALID,0.34375,
2010-02-01, 00:20:05,VALID,1004.67,VALID,0,VALID,95.0177,VALID,0,VALID,23.3143,VALID,7,VALID,0.209375,
2010-02-01, 00:21:05,VALID,1004.63,VALID,0,VALID,95.0482,VALID,0,VALID,23.3337,VALID,7,VALID,0.326172,
2010-02-01, 00:22:05,VALID,1004.6,VALID,0,VALID,95.0635,VALID,0,VALID,23.3532,VALID,7,VALID,0.227344,
2010-02-01, 00:23:05,VALID,1004.58,VALID,0,VALID,95.0711,VALID,0,VALID,23.3532,VALID,7,VALID,0.358203,
2010-02-01, 00:24:05,VALID,1004.56,VALID,0,VALID,95.0864,VALID,0,VALID,23.3337,VALID,7,VALID,0.416797,
2010-02-01, 00:25:05,VALID,1004.54,VALID,0,VALID,95.0635,VALID,0,VALID,23.3143,VALID,5,VALID,0.410937,
2010-02-01, 00:26:05,VALID,1004.53,VALID,0,VALID,95.0787,VALID,0,VALID,23.3337,VALID,4,VALID,0.292578,
2010-02-01, 00:27:05,VALID,1004.52,VALID,0,VALID,95.094,VALID,0,VALID,23.3532,VALID,4,VALID,0.367578,
2010-02-01, 00:28:05,VALID,1004.5,VALID,0,VALID,95.1093,VALID,0,VALID,23.3337,VALID,4,VALID,0.250391,
2010-02-01, 00:29:05,VALID,1004.5,VALID,0,VALID,95.1245,VALID,0.100563,VALID,23.3125,VALID,4,VALID,0.2,
2010-02-01, 00:30:05,VALID,1004.46,VALID,0,VALID,95.1169,VALID,0.100563,VALID,23.2541,VALID,4,VALID,0.250781,
2010-02-01, 00:31:05,VALID,1004.45,VALID,0,VALID,95.1169,VALID,0,VALID,23.2736,VALID,4,VALID,0.046875,
2010-02-01, 00:32:05,VALID,1004.45,VALID,0,VALID,95.1093,VALID,0,VALID,23.2541,VALID,4,VALID,0.334375,
2010-02-01, 00:33:05,VALID,1004.46,VALID,0,VALID,95.1016,VALID,0,VALID,23.1957,VALID,4,VALID,0.363281,
2010-02-01, 00:34:05,VALID,1004.43,VALID,0,VALID,95.0864,VALID,0,VALID,23.194,VALID,4,VALID,0.340625,
2010-02-01, 00:35:05,VALID,1004.46,VALID,0,VALID,95.0787,VALID,0,VALID,23.2736,VALID,4,VALID,0.339063,
2010-02-01, 00:36:05,VALID,1004.44,VALID,0,VALID,95.1093,VALID,0,VALID,23.2931,VALID,4,VALID,0.009375,
2010-02-01, 00:37:05,VALID,1004.44,VALID,0,VALID,95.1245,VALID,0,VALID,23.2931,VALID,4,VALID,0,
2010-02-01, 00:38:05,VALID,1004.41,VALID,0,VALID,95.1398,VALID,0.100563,VALID,23.2931,VALID,4,VALID,0,
2010-02-01, 00:39:05,VALID,1004.4,VALID,0,VALID,95.1474,VALID,0,VALID,23.3143,VALID,4,VALID,0,
2010-02-01, 00:40:05,VALID,1004.39,VALID,0,VALID,95.1398,VALID,0.100563,VALID,23.3125,VALID,4,VALID,0,
2010-02-01, 00:41:05,VALID,1004.39,VALID,0,VALID,95.1398,VALID,0,VALID,23.3125,VALID,4,VALID,0.324219,
2010-02-01, 00:42:05,VALID,1004.39,VALID,0,VALID,95.1627,VALID,0,VALID,23.2931,VALID,4,VALID,0.322266,
2010-02-01, 00:43:05,VALID,1004.4,VALID,0,VALID,95.1474,VALID,0,VALID,23.2541,VALID,4,VALID,0.446094,
2010-02-01, 00:44:05,VALID,1004.39,VALID,0,VALID,95.1321,VALID,0,VALID,23.217,VALID,360,VALID,0.504297,
2010-02-01, 00:45:05,VALID,1004.34,VALID,0,VALID,95.1398,VALID,0,VALID,23.217,VALID,360,VALID,0.565234,
2010-02-01, 00:46:05,VALID,1004.34,VALID,0,VALID,95.1245,VALID,0,VALID,23.217,VALID,360,VALID,0.479297,
2010-02-01, 00:47:05,VALID,1004.32,VALID,0,VALID,95.1321,VALID,0,VALID,23.1975,VALID,360,VALID,0.364062,
2010-02-01, 00:48:05,VALID,1004.29,VALID,0,VALID,95.1321,VALID,0,VALID,23.178,VALID,360,VALID,0.351563,
2010-02-01, 00:49:05,VALID,1004.28,VALID,0,VALID,95.1169,VALID,0,VALID,23.1391,VALID,360,VALID,0.401172,
2010-02-01, 00:50:05,VALID,1004.25,VALID,0,VALID,95.1169,VALID,0,VALID,23.1391,VALID,360,VALID,0.279687,
2010-02-01, 00:51:05,VALID,1004.25,VALID,0,VALID,95.1016,VALID,0,VALID,23.1197,VALID,360,VALID,0.432422,
2010-02-01, 00:52:05,VALID,1004.22,VALID,0,VALID,95.1093,VALID,0,VALID,23.1197,VALID,360,VALID,0.424609,
2010-02-01, 00:53:05,VALID,1004.26,VALID,0,VALID,95.1093,VALID,0,VALID,23.1391,VALID,360,VALID,0.353125,
2010-02-01, 00:54:05,VALID,1004.25,VALID,0,VALID,95.1398,VALID,0,VALID,23.1197,VALID,360,VALID,0.487109,
2010-02-01, 00:55:05,VALID,1004.21,VALID,0,VALID,95.1169,VALID,0,VALID,23.1197,VALID,360,VALID,0,
2010-02-01, 00:56:05,VALID,1004.23,VALID,0,VALID,95.1245,VALID,0,VALID,23.1002,VALID,360,VALID,0,
2010-02-01, 00:57:05,VALID,1004.21,VALID,0,VALID,95.1169,VALID,0,VALID,23.0807,VALID,360,VALID,0,
2010-02-01, 00:58:05,VALID,1004.22,VALID,0,VALID,95.1321,VALID,0,VALID,23.0418,VALID,360,VALID,0,
2010-02-01, 00:59:05,VALID,1004.21,VALID,0,VALID,95.1245,VALID,0,VALID,23.0418,VALID,360,VALID,0,
2010-02-01, 01:00:05,VALID,1004.22,VALID,0,VALID,95.1245,VALID,0,VALID,23.0224,VALID,360,VALID,0,
2010-02-01, 01:01:05,VALID,1004.19,VALID,0,VALID,95.1321,VALID,0,VALID,23.0418,VALID,360,VALID,0.399609,
2010-02-01, 01:02:05,VALID,1004.21,VALID,0,VALID,95.1321,VALID,0,VALID,23.0029,VALID,360,VALID,0.404687,
2010-02-01, 01:03:05,VALID,1004.22,VALID,0,VALID,95.155,VALID,0,VALID,23.0029,VALID,360,VALID,0.403906,
2010-02-01, 01:04:05,VALID,1004.18,VALID,0,VALID,95.155,VALID,0,VALID,23.0029,VALID,359,VALID,0.380859,
2010-02-01, 01:05:05,VALID,1004.19,VALID,0,VALID,95.1474,VALID,0,VALID,22.9817,VALID,359,VALID,0.326562,
2010-02-01, 01:06:05,VALID,1004.19,VALID,0,VALID,95.1779,VALID,0,VALID,22.9834,VALID,359,VALID,0.392188,
2010-02-01, 01:07:05,VALID,1004.15,VALID,0,VALID,95.1703,VALID,0,VALID,22.964,VALID,359,VALID,0.347656,
2010-02-01, 01:08:05,VALID,1004.17,VALID,0,VALID,95.1627,VALID,0,VALID,22.964,VALID,359,VALID,0.410937,
2010-02-01, 01:09:05,VALID,1004.17,VALID,0,VALID,95.155,VALID,0,VALID,22.9834,VALID,359,VALID,0.298047,
2010-02-01, 01:10:05,VALID,1004.17,VALID,0,VALID,95.1627,VALID,0,VALID,22.9622,VALID,359,VALID,0.187109,
2010-02-01, 01:11:05,VALID,1004.17,VALID,0,VALID,95.1779,VALID,0,VALID,23.0418,VALID,359,VALID,0,
2010-02-01, 01:12:05,VALID,1004.16,VALID,0,VALID,95.1932,VALID,0,VALID,23.0613,VALID,359,VALID,0,
2010-02-01, 01:13:05,VALID,1004.13,VALID,0,VALID,95.2389,VALID,0,VALID,23.0613,VALID,359,VALID,0,
2010-02-01, 01:14:05,VALID,1004.13,VALID,0,VALID,95.2237,VALID,0,VALID,23.0807,VALID,359,VALID,0,
2010-02-01, 01:15:05,VALID,1004.12,VALID,0,VALID,95.2389,VALID,0,VALID,23.079,VALID,359,VALID,0,
2010-02-01, 01:16:05,VALID,1004.11,VALID,0,VALID,95.2389,VALID,0,VALID,23.1391,VALID,359,VALID,0,
2010-02-01, 01:17:05,VALID,1004.1,VALID,0,VALID,95.2847,VALID,0,VALID,23.1197,VALID,359,VALID,0,
2010-02-01, 01:18:05,VALID,1004.08,VALID,0,VALID,95.2771,VALID,0,VALID,23.0613,VALID,359,VALID,0,
2010-02-01, 01:19:05,VALID,1004.1,VALID,0,VALID,95.2618,VALID,0,VALID,23.0029,VALID,359,VALID,0,
2010-02-01, 01:20:05,VALID,1004.1,VALID,0,VALID,95.2389,VALID,0,VALID,22.9834,VALID,359,VALID,0,
2010-02-01, 01:21:04,VALID,1004.12,VALID,0,VALID,95.2542,VALID,0,VALID,22.9445,VALID,359,VALID,0,
2010-02-01, 01:22:04,VALID,1004.1,VALID,0,VALID,95.2313,VALID,0,VALID,22.9251,VALID,359,VALID,0,
2010-02-01, 01:23:04,VALID,1004.07,VALID,0,VALID,95.2237,VALID,0,VALID,22.9073,VALID,359,VALID,0,
2010-02-01, 01:24:04,VALID,1004.04,VALID,0,VALID,95.2084,VALID,0,VALID,22.8861,VALID,359,VALID,0,
2010-02-01, 01:25:04,VALID,1004.06,VALID,0,VALID,95.2084,VALID,0,VALID,22.8667,VALID,359,VALID,0,
2010-02-01, 01:26:04,VALID,1004.05,VALID,0,VALID,95.2161,VALID,0,VALID,22.9056,VALID,359,VALID,0,
2010-02-01, 01:27:04,VALID,1004.08,VALID,0,VALID,95.2084,VALID,0,VALID,22.9056,VALID,359,VALID,0,
2010-02-01, 01:28:04,VALID,1004.09,VALID,0,VALID,95.2237,VALID,0,VALID,22.9056,VALID,359,VALID,0,
2010-02-01, 01:29:04,VALID,1004.08,VALID,0,VALID,95.2389,VALID,0,VALID,22.9251,VALID,359,VALID,0,
2010-02-01, 01:30:04,VALID,1004.04,VALID,0,VALID,95.2466,VALID,0,VALID,22.964,VALID,359,VALID,0,
2010-02-01, 01:31:04,VALID,1004.04,VALID,0,VALID,95.2542,VALID,0,VALID,23.0029,VALID,359,VALID,0,
2010-02-01, 01:32:04,VALID,1004.04,VALID,0,VALID,95.2847,VALID,0,VALID,22.9834,VALID,359,VALID,0,
2010-02-01, 01:33:04,VALID,1004.03,VALID,0,VALID,95.3,VALID,0,VALID,23.0029,VALID,359,VALID,0,
2010-02-01, 01:34:04,VALID,1004.02,VALID,0,VALID,95.3,VALID,0,VALID,22.964,VALID,359,VALID,0,
2010-02-01, 01:35:04,VALID,1004.02,VALID,0,VALID,95.3076,VALID,0,VALID,22.9428,VALID,359,VALID,0,
2010-02-01, 01:36:04,VALID,1004.05,VALID,0,VALID,95.3229,VALID,0,VALID,22.9251,VALID,359,VALID,0,
2010-02-01, 01:37:04,VALID,1004.04,VALID,0,VALID,95.3076,VALID,0,VALID,22.9056,VALID,359,VALID,0,
2010-02-01, 01:38:04,VALID,1004.02,VALID,0,VALID,95.3,VALID,0,VALID,22.9657,VALID,359,VALID,0,
2010-02-01, 01:39:04,VALID,1004.02,VALID,0,VALID,95.3,VALID,0,VALID,22.964,VALID,359,VALID,0,
2010-02-01, 01:40:04,VALID,1004.01,VALID,0,VALID,95.3229,VALID,0,VALID,22.9428,VALID,359,VALID,0,
2010-02-01, 01:41:04,VALID,1004,VALID,0,VALID,95.3381,VALID,0,VALID,22.9056,VALID,359,VALID,0,
2010-02-01, 01:42:04,VALID,1003.95,VALID,0,VALID,95.3229,VALID,0,VALID,22.8861,VALID,359,VALID,0,
2010-02-01, 01:43:04,VALID,1003.95,VALID,0,VALID,95.3381,VALID,0,VALID,22.8667,VALID,359,VALID,0,
2010-02-01, 01:44:04,VALID,1003.95,VALID,0,VALID,95.3457,VALID,0,VALID,22.8684,VALID,359,VALID,0,
2010-02-01, 01:45:04,VALID,1003.94,VALID,0,VALID,95.3305,VALID,0,VALID,22.8455,VALID,359,VALID,0,
2010-02-01, 01:46:04,VALID,1003.97,VALID,0,VALID,95.3229,VALID,0,VALID,22.8472,VALID,359,VALID,0,
2010-02-01, 01:47:04,VALID,1003.96,VALID,0,VALID,95.3229,VALID,0,VALID,22.8472,VALID,359,VALID,0,
2010-02-01, 01:48:04,VALID,1003.98,VALID,0,VALID,95.3381,VALID,0,VALID,22.8667,VALID,359,VALID,0,
2010-02-01, 01:49:04,VALID,1003.99,VALID,0,VALID,95.3686,VALID,0,VALID,22.8472,VALID,359,VALID,0,
2010-02-01, 01:50:04,VALID,1004,VALID,0,VALID,95.3534,VALID,0,VALID,22.8472,VALID,359,VALID,0,
2010-02-01, 01:51:04,VALID,1003.96,VALID,0,VALID,95.361,VALID,0,VALID,22.8667,VALID,359,VALID,0,
2010-02-01, 01:52:04,VALID,1003.97,VALID,0,VALID,95.361,VALID,0,VALID,22.9056,VALID,359,VALID,0,
2010-02-01, 01:53:04,VALID,1003.98,VALID,0,VALID,95.361,VALID,0,VALID,22.9428,VALID,359,VALID,0,
2010-02-01, 01:54:04,VALID,1003.96,VALID,0,VALID,95.3915,VALID,0.100563,VALID,22.9817,VALID,359,VALID,0,
2010-02-01, 01:55:04,VALID,1003.95,VALID,0,VALID,95.4144,VALID,0.100563,VALID,22.9233,VALID,359,VALID,0,
2010-02-01, 01:56:04,VALID,1003.97,VALID,0,VALID,95.4144,VALID,0,VALID,22.9251,VALID,359,VALID,0,
2010-02-01, 01:57:04,VALID,1003.96,VALID,0,VALID,95.4297,VALID,0.100563,VALID,22.8844,VALID,359,VALID,0,
2010-02-01, 01:58:04,VALID,1003.97,VALID,0,VALID,95.4373,VALID,0.100563,VALID,22.8844,VALID,359,VALID,0,
2010-02-01, 01:59:04,VALID,1003.97,VALID,0,VALID,95.4144,VALID,0.100563,VALID,22.8844,VALID,359,VALID,0,
2010-02-01, 02:00:04,VALID,1003.95,VALID,0,VALID,95.422,VALID,0,VALID,22.9021,VALID,359,VALID,0,
2010-02-01, 02:01:04,VALID,1003.97,VALID,0,VALID,95.4526,VALID,0,VALID,22.9233,VALID,359,VALID,0,
2010-02-01, 02:02:04,VALID,1003.94,VALID,0,VALID,95.4373,VALID,0,VALID,22.9039,VALID,359,VALID,0,
2010-02-01, 02:03:04,VALID,1003.95,VALID,0,VALID,95.4526,VALID,0,VALID,22.9039,VALID,359,VALID,0,
2010-02-01, 02:04:04,VALID,1003.95,VALID,0,VALID,95.4678,VALID,0.100563,VALID,22.9216,VALID,359,VALID,0,
2010-02-01, 02:05:04,VALID,1003.95,VALID,0,VALID,95.4526,VALID,0.100563,VALID,22.941,VALID,359,VALID,0,
2010-02-01, 02:06:04,VALID,1003.94,VALID,0,VALID,95.4526,VALID,0.100563,VALID,23.0595,VALID,359,VALID,0,
2010-02-01, 02:07:04,VALID,1003.94,VALID,0,VALID,95.4602,VALID,0.100563,VALID,23.1374,VALID,359,VALID,0,
2010-02-01, 02:08:04,VALID,1003.95,VALID,0,VALID,95.4678,VALID,0,VALID,23.0984,VALID,359,VALID,0,
2010-02-01, 02:09:04,VALID,1003.95,VALID,0,VALID,95.4983,VALID,0,VALID,23.0401,VALID,359,VALID,0,
2010-02-01, 02:10:04,VALID,1003.98,VALID,0,VALID,95.4983,VALID,0,VALID,23.0012,VALID,359,VALID,0,
2010-02-01, 02:11:04,VALID,1003.97,VALID,0,VALID,95.506,VALID,0.100563,VALID,22.941,VALID,359,VALID,0.60625,
2010-02-01, 02:12:04,VALID,1003.99,VALID,0,VALID,95.4907,VALID,0.100563,VALID,22.9216,VALID,359,VALID,0.553516,
2010-02-01, 02:13:04,VALID,1004.01,VALID,0,VALID,95.4983,VALID,0,VALID,22.9428,VALID,359,VALID,0.415625,
2010-02-01, 02:14:04,VALID,1004,VALID,0,VALID,95.4907,VALID,0,VALID,22.9445,VALID,359,VALID,0.459766,
2010-02-01, 02:15:04,VALID,1004.01,VALID,0,VALID,95.4831,VALID,0,VALID,23.0029,VALID,359,VALID,0.396875,
2010-02-01, 02:16:04,VALID,1004.03,VALID,0,VALID,95.4907,VALID,0,VALID,22.964,VALID,359,VALID,0.363281,
2010-02-01, 02:17:04,VALID,1004.02,VALID,0,VALID,95.5136,VALID,0,VALID,22.9251,VALID,359,VALID,0.501562,
2010-02-01, 02:18:04,VALID,1004.02,VALID,0,VALID,95.506,VALID,0,VALID,22.9428,VALID,359,VALID,0.340234,
2010-02-01, 02:19:04,VALID,1004.03,VALID,0,VALID,95.4983,VALID,0,VALID,23.0436,VALID,359,VALID,0.349219,
2010-02-01, 02:20:04,VALID,1004.05,VALID,0,VALID,95.4983,VALID,0,VALID,22.9834,VALID,359,VALID,0.443359,
2010-02-01, 02:21:04,VALID,1004.03,VALID,0,VALID,95.5288,VALID,0,VALID,22.9039,VALID,359,VALID,0.455469,
2010-02-01, 02:22:04,VALID,1004,VALID,0,VALID,95.5365,VALID,0,VALID,22.8861,VALID,359,VALID,0.612109,
2010-02-01, 02:23:04,VALID,1004.02,VALID,0,VALID,95.5212,VALID,0,VALID,22.8667,VALID,359,VALID,0.655469,
2010-02-01, 02:24:04,VALID,1003.99,VALID,0,VALID,95.5212,VALID,0,VALID,22.8861,VALID,359,VALID,0.535937,
2010-02-01, 02:25:04,VALID,1004.01,VALID,0,VALID,95.5365,VALID,0,VALID,22.9056,VALID,359,VALID,0.583984,
2010-02-01, 02:26:04,VALID,1004.01,VALID,0,VALID,95.5365,VALID,0,VALID,22.9056,VALID,359,VALID,0.539453,
2010-02-01, 02:27:04,VALID,1004.01,VALID,0,VALID,95.5288,VALID,0,VALID,22.9251,VALID,359,VALID,0.512891,
2010-02-01, 02:28:04,VALID,1004.01,VALID,0,VALID,95.5136,VALID,0,VALID,22.9251,VALID,359,VALID,0.478906,
2010-02-01, 02:29:04,VALID,1004,VALID,0,VALID,95.5136,VALID,0,VALID,22.9021,VALID,359,VALID,0.326172,
2010-02-01, 02:30:04,VALID,1003.99,VALID,0,VALID,95.5136,VALID,0,VALID,22.9233,VALID,359,VALID,0.386719,
2010-02-01, 02:31:04,VALID,1004,VALID,0,VALID,95.5365,VALID,0,VALID,22.9233,VALID,359,VALID,0.335156,
2010-02-01, 02:32:04,VALID,1004,VALID,0,VALID,95.5365,VALID,0,VALID,22.8827,VALID,359,VALID,0.273438,
2010-02-01, 02:33:04,VALID,1003.99,VALID,0,VALID,95.5441,VALID,0.100563,VALID,22.8844,VALID,359,VALID,0.230859,
2010-02-01, 02:34:04,VALID,1003.98,VALID,0,VALID,95.5365,VALID,0,VALID,22.9039,VALID,359,VALID,0.291797,
2010-02-01, 02:35:04,VALID,1003.94,VALID,0,VALID,95.5441,VALID,0,VALID,22.8844,VALID,359,VALID,0.45,
2010-02-01, 02:36:04,VALID,1003.96,VALID,0,VALID,95.5441,VALID,0,VALID,22.8632,VALID,359,VALID,0.415625,
2010-02-01, 02:37:04,VALID,1003.94,VALID,0,VALID,95.5441,VALID,0.100563,VALID,22.8827,VALID,359,VALID,0.428516,
2010-02-01, 02:38:04,VALID,1003.92,VALID,0,VALID,95.5288,VALID,0,VALID,22.9039,VALID,359,VALID,0.416406,
2010-02-01, 02:39:04,VALID,1003.93,VALID,0,VALID,95.5212,VALID,0,VALID,22.9233,VALID,359,VALID,0.456641,
2010-02-01, 02:40:04,VALID,1003.89,VALID,0,VALID,95.5441,VALID,0,VALID,22.9445,VALID,359,VALID,0.456641,
2010-02-01, 02:41:04,VALID,1003.89,VALID,0,VALID,95.5594,VALID,0,VALID,22.9428,VALID,359,VALID,0.400781,
2010-02-01, 02:42:04,VALID,1003.91,VALID,0,VALID,95.5594,VALID,0.100563,VALID,22.9233,VALID,359,VALID,0.353125,
2010-02-01, 02:43:04,VALID,1003.88,VALID,0,VALID,95.5517,VALID,0,VALID,22.9039,VALID,359,VALID,0.369922,
2010-02-01, 02:44:04,VALID,1003.88,VALID,0,VALID,95.5746,VALID,0,VALID,22.8649,VALID,359,VALID,0.410937,
2010-02-01, 02:45:04,VALID,1003.9,VALID,0,VALID,95.5517,VALID,0,VALID,22.8455,VALID,359,VALID,0.438672,
2010-02-01, 02:46:04,VALID,1003.88,VALID,0,VALID,95.5517,VALID,0.100563,VALID,22.8438,VALID,359,VALID,0.535547,
2010-02-01, 02:47:04,VALID,1003.87,VALID,0,VALID,95.5594,VALID,0,VALID,22.8048,VALID,347,VALID,0.513672,
2010-02-01, 02:48:04,VALID,1003.91,VALID,0,VALID,95.5746,VALID,0.100563,VALID,22.8048,VALID,338,VALID,0.383203,
2010-02-01, 02:49:04,VALID,1003.94,VALID,0,VALID,95.5594,VALID,0,VALID,22.826,VALID,338,VALID,0.405078,
2010-02-01, 02:50:04,VALID,1003.93,VALID,0,VALID,95.5517,VALID,0,VALID,22.8455,VALID,338,VALID,0.282813,
2010-02-01, 02:51:04,VALID,1003.95,VALID,0,VALID,95.5594,VALID,0,VALID,22.826,VALID,338,VALID,0.317969,
2010-02-01, 02:52:04,VALID,1003.95,VALID,0,VALID,95.5899,VALID,0,VALID,22.8455,VALID,338,VALID,0.327344,
2010-02-01, 02:53:04,VALID,1003.97,VALID,0,VALID,95.567,VALID,0.100563,VALID,22.8455,VALID,338,VALID,0.264062,
2010-02-01, 02:54:04,VALID,1003.96,VALID,0,VALID,95.567,VALID,0,VALID,22.8649,VALID,338,VALID,0.259375,
2010-02-01, 02:55:04,VALID,1003.95,VALID,0,VALID,95.567,VALID,0.100563,VALID,22.8649,VALID,338,VALID,0.367188,
2010-02-01, 02:56:04,VALID,1003.96,VALID,0,VALID,95.567,VALID,0.100563,VALID,22.8649,VALID,338,VALID,0.437891,
2010-02-01, 02:57:04,VALID,1003.98,VALID,0,VALID,95.5822,VALID,0,VALID,22.8438,VALID,338,VALID,0.396484,
2010-02-01, 02:58:04,VALID,1004,VALID,0,VALID,95.5594,VALID,0.100563,VALID,22.8438,VALID,338,VALID,0.359375,
2010-02-01, 02:59:04,VALID,1004.01,VALID,0,VALID,95.567,VALID,0,VALID,22.8861,VALID,338,VALID,0.297656,
2010-02-01, 03:00:04,VALID,1004.01,VALID,0,VALID,95.5746,VALID,0,VALID,22.8861,VALID,338,VALID,0.446484,
2010-02-01, 03:01:04,VALID,1004.01,VALID,0,VALID,95.567,VALID,0,VALID,22.8861,VALID,338,VALID,0.349219,
2010-02-01, 03:02:04,VALID,1004.02,VALID,0,VALID,95.5899,VALID,0,VALID,22.8649,VALID,338,VALID,0.48125,
2010-02-01, 03:03:04,VALID,1004.04,VALID,0,VALID,95.5822,VALID,0,VALID,22.8861,VALID,338,VALID,0.48125,
2010-02-01, 03:04:04,VALID,1004.04,VALID,0,VALID,95.5746,VALID,0,VALID,22.8861,VALID,338,VALID,0.408594,
2010-02-01, 03:05:04,VALID,1004.06,VALID,0,VALID,95.5746,VALID,0,VALID,22.8455,VALID,338,VALID,0.399609,
2010-02-01, 03:06:04,VALID,1004.09,VALID,0,VALID,95.5975,VALID,0,VALID,22.8472,VALID,338,VALID,0.501953,
2010-02-01, 03:07:04,VALID,1004.08,VALID,0,VALID,95.5822,VALID,0,VALID,22.826,VALID,338,VALID,0.444922,
2010-02-01, 03:08:04,VALID,1004.13,VALID,0,VALID,95.567,VALID,0,VALID,22.826,VALID,338,VALID,0.416016,
2010-02-01, 03:09:04,VALID,1004.13,VALID,0,VALID,95.5594,VALID,0,VALID,22.8066,VALID,338,VALID,0.532031,
2010-02-01, 03:10:04,VALID,1004.16,VALID,0,VALID,95.567,VALID,0,VALID,22.8278,VALID,338,VALID,0.322656,
2010-02-01, 03:11:04,VALID,1004.17,VALID,0,VALID,95.567,VALID,0,VALID,22.8278,VALID,338,VALID,0.401953,
2010-02-01, 03:12:04,VALID,1004.16,VALID,0,VALID,95.5517,VALID,0,VALID,22.8844,VALID,338,VALID,0.262891,
2010-02-01, 03:13:04,VALID,1004.17,VALID,0,VALID,95.5594,VALID,0,VALID,22.8844,VALID,338,VALID,0.267969,
2010-02-01, 03:14:04,VALID,1004.16,VALID,0,VALID,95.5822,VALID,0,VALID,22.8861,VALID,338,VALID,0,
2010-02-01, 03:15:04,VALID,1004.17,VALID,0,VALID,95.5594,VALID,0,VALID,22.8667,VALID,338,VALID,0.470313,
2010-02-01, 03:16:04,VALID,1004.14,VALID,0,VALID,95.5594,VALID,0,VALID,22.9056,VALID,338,VALID,0.301953,
2010-02-01, 03:17:04,VALID,1004.15,VALID,0,VALID,95.5746,VALID,0,VALID,22.8861,VALID,338,VALID,0.407031,
2010-02-01, 03:18:04,VALID,1004.16,VALID,0,VALID,95.5899,VALID,0,VALID,22.8861,VALID,338,VALID,0.498828,
2010-02-01, 03:19:04,VALID,1004.15,VALID,0,VALID,95.6051,VALID,0,VALID,22.9056,VALID,338,VALID,0.494141,
2010-02-01, 03:20:04,VALID,1004.15,VALID,0,VALID,95.5899,VALID,0,VALID,22.8844,VALID,338,VALID,0.511328,
2010-02-01, 03:21:04,VALID,1004.18,VALID,0,VALID,95.5822,VALID,0,VALID,22.9056,VALID,338,VALID,0.501562,
2010-02-01, 03:22:04,VALID,1004.15,VALID,0,VALID,95.6051,VALID,0,VALID,22.8861,VALID,338,VALID,0.476172,
2010-02-01, 03:23:04,VALID,1004.16,VALID,0,VALID,95.5975,VALID,0,VALID,22.9251,VALID,338,VALID,0.185547,
2010-02-01, 03:24:04,VALID,1004.23,VALID,0,VALID,95.6051,VALID,0,VALID,22.9428,VALID,338,VALID,0,
2010-02-01, 03:25:04,VALID,1004.19,VALID,0,VALID,95.5822,VALID,0,VALID,23.0224,VALID,338,VALID,0,
2010-02-01, 03:26:04,VALID,1004.22,VALID,0,VALID,95.6051,VALID,0,VALID,23.0613,VALID,338,VALID,0,
2010-02-01, 03:27:04,VALID,1004.2,VALID,0,VALID,95.5822,VALID,0,VALID,23.0984,VALID,338,VALID,0,
2010-02-01, 03:28:04,VALID,1004.23,VALID,0,VALID,95.567,VALID,0,VALID,23.1568,VALID,338,VALID,0,
2010-02-01, 03:29:04,VALID,1004.22,VALID,0,VALID,95.5899,VALID,0,VALID,23.1975,VALID,338,VALID,0,
2010-02-01, 03:30:04,VALID,1004.21,VALID,0,VALID,95.5899,VALID,0,VALID,23.2152,VALID,338,VALID,0,
2010-02-01, 03:31:04,VALID,1004.19,VALID,0,VALID,95.5746,VALID,0,VALID,23.2948,VALID,338,VALID,0,
2010-02-01, 03:32:04,VALID,1004.19,VALID,0,VALID,95.6051,VALID,0,VALID,23.2948,VALID,338,VALID,0,
2010-02-01, 03:33:04,VALID,1004.17,VALID,0,VALID,95.5975,VALID,0,VALID,23.3143,VALID,338,VALID,0,
2010-02-01, 03:34:04,VALID,1004.15,VALID,0,VALID,95.6051,VALID,0,VALID,23.3337,VALID,338,VALID,0,
2010-02-01, 03:35:04,VALID,1004.16,VALID,0,VALID,95.5899,VALID,0,VALID,23.3337,VALID,338,VALID,0,
2010-02-01, 03:36:04,VALID,1004.14,VALID,0,VALID,95.6051,VALID,0,VALID,23.3532,VALID,338,VALID,0,
2010-02-01, 03:37:04,VALID,1004.14,VALID,0,VALID,95.6051,VALID,0,VALID,23.3125,VALID,338,VALID,0,
2010-02-01, 03:38:04,VALID,1004.15,VALID,0,VALID,95.6051,VALID,0,VALID,23.3337,VALID,338,VALID,0,
2010-02-01, 03:39:04,VALID,1004.13,VALID,0,VALID,95.6128,VALID,0,VALID,23.3143,VALID,342,VALID,0,
2010-02-01, 03:40:04,VALID,1004.17,VALID,0,VALID,95.6128,VALID,0,VALID,23.2948,VALID,342,VALID,0,
2010-02-01, 03:41:04,VALID,1004.16,VALID,0,VALID,95.5975,VALID,0,VALID,23.3337,VALID,342,VALID,0,
2010-02-01, 03:42:04,VALID,1004.17,VALID,0,VALID,95.5822,VALID,0,VALID,23.3514,VALID,350,VALID,0,
2010-02-01, 03:43:04,VALID,1004.16,VALID,0,VALID,95.5899,VALID,0,VALID,23.3921,VALID,354,VALID,0,
2010-02-01, 03:44:04,VALID,1004.14,VALID,0,VALID,95.5822,VALID,0,VALID,23.47,VALID,26,VALID,1.01328,
2010-02-01, 03:45:04,VALID,1004.15,VALID,0,VALID,95.5822,VALID,0,VALID,23.5071,VALID,30,VALID,0.533203,
2010-02-01, 03:46:04,VALID,1004.12,VALID,0,VALID,95.5594,VALID,0,VALID,23.5868,VALID,30,VALID,0.393359,
2010-02-01, 03:47:04,VALID,1004.12,VALID,0,VALID,95.5822,VALID,0,VALID,23.585,VALID,3,VALID,0.548437,
2010-02-01, 03:48:04,VALID,1004.09,VALID,0,VALID,95.5746,VALID,0,VALID,23.6257,VALID,358,VALID,0.404297,
2010-02-01, 03:49:04,VALID,1004.09,VALID,0,VALID,95.567,VALID,0,VALID,23.6239,VALID,358,VALID,0.309766,